Kota Ria — 9VJK4 — position and weather

sailwx.info

Track history (hours):
 
Tides and Currents Weather Stations Pressure Air Temp Water Temp Dewpoint Dewpoint Depression Visibility Wind Speed Wind Dir Waves Ship Positions

Kota Ria

Last reported at 2014-Oct-29 06:33 UTC. Time now 2014-Oct-31 07:08 UTC.
Position N 01°15' E 104°04'.

Length 146 m; draft 6.6 m.

Type: Ship. MMSI: 565050000.

Date/timePositionNaut miles runAvg speedWind from/ knotsBaromVisibWave heightAir tempDewpointWater temp
2014-Oct-29 06:33N 01°15' E 104°04'1412.3
2014-Oct-29 05:27N 01°11' E 103°50'7 8.2
2014-Oct-29 04:33N 01°16' E 103°45'1 1.1
2014-Oct-29 03:33N 01°17' E 103°46'0 0.0
2014-Oct-29 02:33N 01°17' E 103°46'0 0.0
2014-Oct-29 01:27N 01°17' E 103°46'0 0.0
2014-Oct-29 00:18N 01°17' E 103°46'0 0.0
2014-Oct-28 23:33N 01°17' E 103°46'0 0.0
2014-Oct-28 22:30N 01°17' E 103°46'0 0.0
2014-Oct-28 21:24N 01°17' E 103°46'0 0.0
2014-Oct-28 20:24N 01°17' E 103°46'0 0.0
2014-Oct-28 19:30N 01°17' E 103°46'0 0.0
2014-Oct-28 18:24N 01°17' E 103°46'0 0.0
2014-Oct-28 17:33N 01°17' E 103°46'0 0.0
2014-Oct-28 16:33N 01°17' E 103°46'0 0.0
2014-Oct-28 15:09N 01°17' E 103°46'0 0.0
2014-Oct-28 14:33N 01°17' E 103°46'0 0.0
2014-Oct-28 13:33N 01°17' E 103°46'0 0.0
2014-Oct-28 12:33N 01°17' E 103°46'0 0.0
2014-Oct-28 11:25N 01°17' E 103°46'0 0.0
2014-Oct-28 10:27N 01°17' E 103°46'0 0.0
2014-Oct-28 09:33N 01°17' E 103°46'0 0.0
2014-Oct-28 08:33N 01°17' E 103°46'0 0.0
2014-Oct-28 07:29N 01°17' E 103°46'0 0.0
2014-Oct-28 06:29N 01°17' E 103°46'0 0.0
2014-Oct-28 05:29N 01°17' E 103°46'0 0.0
2014-Oct-28 04:29N 01°17' E 103°46'1 0.5
2014-Oct-28 03:32N 01°17' E 103°45'9 9.6
2014-Oct-28 02:33N 01°13' E 103°54'4 4.0
2014-Oct-28 01:33N 01°15' E 103°58'3 2.9
2014-Oct-28 00:33N 01°16' E 104°00'4 4.3
2014-Oct-27 23:31N 01°16' E 104°05'4 4.5
2014-Oct-27 22:33N 01°17' E 104°09'3 3.3
2014-Oct-27 21:31N 01°17' E 104°12'1 1.5
2014-Oct-27 20:33N 01°18' E 104°14'  
2014-Oct-21 23:30N 01°15' E 104°06'1213.1
2014-Oct-21 22:33N 01°12' E 103°54'8 8.3
2014-Oct-21 21:33N 01°15' E 103°46'2 1.9
2014-Oct-21 20:25N 01°17' E 103°46'0 0.0
2014-Oct-21 19:31N 01°17' E 103°46'0 0.0
2014-Oct-21 18:31N 01°17' E 103°46'0 0.0
2014-Oct-21 17:31N 01°17' E 103°46'0 0.1
2014-Oct-21 16:33N 01°17' E 103°46'0 0.1
2014-Oct-21 15:32N 01°17' E 103°46'0 0.0
2014-Oct-21 14:26N 01°17' E 103°46'0 0.0
2014-Oct-21 13:32N 01°17' E 103°46'0 0.0
2014-Oct-21 11:32N 01°17' E 103°46'0 0.0
2014-Oct-21 10:26N 01°17' E 103°46'0 0.0
2014-Oct-21 09:32N 01°17' E 103°46'0 0.0
2014-Oct-21 08:20N 01°17' E 103°46'0 0.0
2014-Oct-21 07:32N 01°17' E 103°46'0 0.0
2014-Oct-21 06:29N 01°17' E 103°46'0 0.0
2014-Oct-21 05:32N 01°17' E 103°46'0 0.0
2014-Oct-21 04:23N 01°17' E 103°46'0 0.0
2014-Oct-21 03:20N 01°17' E 103°46'0 0.0
2014-Oct-21 02:26N 01°17' E 103°46'0 0.0
2014-Oct-21 01:32N 01°17' E 103°46'0 0.0
2014-Oct-21 00:20N 01°17' E 103°46'0 0.0
2014-Oct-20 23:32N 01°17' E 103°46'0 0.0
2014-Oct-20 22:26N 01°17' E 103°46'0 0.0
2014-Oct-20 21:32N 01°17' E 103°46'0 0.0
2014-Oct-20 20:26N 01°17' E 103°46'0 0.0
2014-Oct-20 19:29N 01°17' E 103°46'0 0.0
2014-Oct-20 18:23N 01°17' E 103°46'1 1.3
2014-Oct-20 17:33N 01°16' E 103°45'8 8.6
2014-Oct-20 16:33N 01°13' E 103°53'7 6.5
2014-Oct-20 15:33N 01°15' E 103°60'9 7.8
2014-Oct-20 14:26N 01°17' E 104°08'  
Track history (hours):
 
Tides and Currents Weather Stations Pressure Air Temp Water Temp Dewpoint Dewpoint Depression Visibility Wind Speed Wind Dir Waves Ship Positions

Kota Ria

Last reported at 2014-Oct-29 06:33 UTC. Time now 2014-Oct-31 07:08 UTC.
Position N 01°15' E 104°04'.

Length 146 m; draft 6.6 m.

Type: Ship. MMSI: 565050000.

Date/timePositionNaut miles runAvg speedWind from/ knotsBaromVisibWave heightAir tempDewpointWater temp
2014-Oct-29 06:33N 01°15' E 104°04'1412.3
2014-Oct-29 05:27N 01°11' E 103°50'7 8.2
2014-Oct-29 04:33N 01°16' E 103°45'1 1.1
2014-Oct-29 03:33N 01°17' E 103°46'0 0.0
2014-Oct-29 02:33N 01°17' E 103°46'0 0.0
2014-Oct-29 01:27N 01°17' E 103°46'0 0.0
2014-Oct-29 00:18N 01°17' E 103°46'0 0.0
2014-Oct-28 23:33N 01°17' E 103°46'0 0.0
2014-Oct-28 22:30N 01°17' E 103°46'0 0.0
2014-Oct-28 21:24N 01°17' E 103°46'0 0.0
2014-Oct-28 20:24N 01°17' E 103°46'0 0.0
2014-Oct-28 19:30N 01°17' E 103°46'0 0.0
2014-Oct-28 18:24N 01°17' E 103°46'0 0.0
2014-Oct-28 17:33N 01°17' E 103°46'0 0.0
2014-Oct-28 16:33N 01°17' E 103°46'0 0.0
2014-Oct-28 15:09N 01°17' E 103°46'0 0.0
2014-Oct-28 14:33N 01°17' E 103°46'0 0.0
2014-Oct-28 13:33N 01°17' E 103°46'0 0.0
2014-Oct-28 12:33N 01°17' E 103°46'0 0.0
2014-Oct-28 11:25N 01°17' E 103°46'0 0.0
2014-Oct-28 10:27N 01°17' E 103°46'0 0.0
2014-Oct-28 09:33N 01°17' E 103°46'0 0.0
2014-Oct-28 08:33N 01°17' E 103°46'0 0.0
2014-Oct-28 07:29N 01°17' E 103°46'0 0.0
2014-Oct-28 06:29N 01°17' E 103°46'0 0.0
2014-Oct-28 05:29N 01°17' E 103°46'0 0.0
2014-Oct-28 04:29N 01°17' E 103°46'1 0.5
2014-Oct-28 03:32N 01°17' E 103°45'9 9.6
2014-Oct-28 02:33N 01°13' E 103°54'4 4.0
2014-Oct-28 01:33N 01°15' E 103°58'3 2.9
2014-Oct-28 00:33N 01°16' E 104°00'4 4.3
2014-Oct-27 23:31N 01°16' E 104°05'4 4.5
2014-Oct-27 22:33N 01°17' E 104°09'3 3.3
2014-Oct-27 21:31N 01°17' E 104°12'1 1.5
2014-Oct-27 20:33N 01°18' E 104°14'  
2014-Oct-21 23:30N 01°15' E 104°06'1213.1
2014-Oct-21 22:33N 01°12' E 103°54'8 8.3
2014-Oct-21 21:33N 01°15' E 103°46'2 1.9
2014-Oct-21 20:25N 01°17' E 103°46'0 0.0
2014-Oct-21 19:31N 01°17' E 103°46'0 0.0
2014-Oct-21 18:31N 01°17' E 103°46'0 0.0
2014-Oct-21 17:31N 01°17' E 103°46'0 0.1
2014-Oct-21 16:33N 01°17' E 103°46'0 0.1
2014-Oct-21 15:32N 01°17' E 103°46'0 0.0
2014-Oct-21 14:26N 01°17' E 103°46'0 0.0
2014-Oct-21 13:32N 01°17' E 103°46'0 0.0
2014-Oct-21 11:32N 01°17' E 103°46'0 0.0
2014-Oct-21 10:26N 01°17' E 103°46'0 0.0
2014-Oct-21 09:32N 01°17' E 103°46'0 0.0
2014-Oct-21 08:20N 01°17' E 103°46'0 0.0
2014-Oct-21 07:32N 01°17' E 103°46'0 0.0
2014-Oct-21 06:29N 01°17' E 103°46'0 0.0
2014-Oct-21 05:32N 01°17' E 103°46'0 0.0
2014-Oct-21 04:23N 01°17' E 103°46'0 0.0
2014-Oct-21 03:20N 01°17' E 103°46'0 0.0
2014-Oct-21 02:26N 01°17' E 103°46'0 0.0
2014-Oct-21 01:32N 01°17' E 103°46'0 0.0
2014-Oct-21 00:20N 01°17' E 103°46'0 0.0
2014-Oct-20 23:32N 01°17' E 103°46'0 0.0
2014-Oct-20 22:26N 01°17' E 103°46'0 0.0
2014-Oct-20 21:32N 01°17' E 103°46'0 0.0
2014-Oct-20 20:26N 01°17' E 103°46'0 0.0
2014-Oct-20 19:29N 01°17' E 103°46'0 0.0
2014-Oct-20 18:23N 01°17' E 103°46'1 1.3
2014-Oct-20 17:33N 01°16' E 103°45'8 8.6
2014-Oct-20 16:33N 01°13' E 103°53'7 6.5
2014-Oct-20 15:33N 01°15' E 103°60'9 7.8
2014-Oct-20 14:26N 01°17' E 104°08'  

Dump ship's entire track history